IRIDIUM 33 DEB, 35616

Orbit data source: Space-Track

IRIDIUM 33 DEB, 35616 is space debris in LEO originally from a launch on Sun, 14 Sep 1997 UTC launched from the Tyuratam Missile And Space Complex (TTMTR). The debris from Iridium 33, an American commercial communications satellite, has been tracked extensively since its accidental collision with the defunct Russian satellite Cosmos 2251 in 2009. This event, occurring at high speed in low Earth orbit (LEO), generated thousands of pieces of space debris, significantly increasing the risk of further collisions. The Iridium 33 debris cloud has impacted space traffic management and orbital debris mitigation strategies, making it a subject of ongoing study in space situational awareness.

Loading next visibility...
Identifier
35616, 1997-051QN
Orbit
LEO
Country
Flag of USUS
Related business
Manufacturer
Unknown
Mission
Spacecraft
Bus & Motor
Unknown
Mass
Unknown
Launch date (UTC)
1997-09-14 (29 years ago)
Launch vehicle
Unknown
Launch site
Tyuratam Missile And Space Complex (TTMTR)
Object type
Payload
Rocket body
Debris
Shape & HBR
Unknown shape, 0.1 m
Radar Cross Section
Small (<0.1 m²)

Expand to show TLE details & history
Last TLE update: 12 hours ago

TLE from 12 hours ago
0 IRIDIUM 33 DEB
1 35616U 97051QN  26208.83890843  .00012306  00000-0  13402-2 0  9998
2 35616  86.3478 241.5032 0011658 101.4844 258.7691 14.87867179909452
Epoch: 2026-07-27T20:08Z
TLE epoch observation values (Epoch: 2026-07-27T20:08:01.688Z)
Latitude
-0.00004°
Longitude
-6.02057°
Altitude
609.322 km
Speed
7.554 km/s
True Right ascension
16h 06m 00s
True Declination
0° 00' 00"
Sunlit
Object was in daylight at epoch
Visualization orbit readout
Latitude
Unknown
Longitude
Unknown
Altitude
Unknown
Speed
Unknown
Apparent Right ascension
Unknown
Apparent Declination
Unknown
Sunlit
N/A
Visualization observer readout
Local Sidereal Time
21:17:16
Azimuth
Unknown
Elevation
Unknown
Doppler factor
Unknown
Orbital elements
Apogee altitude
609.628 km
Perigee altitude
593.354 km
Semi-major axis
6,979.628 km
Eccentricity
0.00117
Inclination
86.3478°
RAAN
241.5032°
Arg. of periapsis
101.4844°
True anomaly
258.6381°
Mean anomaly
258.7691°
Eccentric anomaly
258.7036°
Mean motion
3.72216 °/min
Orbital period
96.72 mins
BSTAR
0.0013402
Loading maneuver chart data...
Computing Atmospheric mass density...
Loading historical data...
Loading historical data...
Loading historical data...
Loading historical data...
Loading historical data...
Loading historical data...
Loading historical data...

Documentation

Showing up to 5 results
|